Home   Weather   Winston-Salem   Past weeks

Flag for USA Past Weather in Winston-Salem, North Carolina, USA — Yesterday and Last 2 Weeks

Now
54 °F

Low clouds.


Feels Like: 51 °F
Forecast: 51 / 64 °F
Wind: 12 mph from Northeast

Location: Smith Reynolds Airport

Current Time: Apr 25, 2017 at 8:29:06 am

Latest Report: Apr 25, 2017 at 7:54 am


Visibility: 9 mi

Pressure: 29.69 "Hg

Humidity: 93%

Dew Point: 52 °F

Location of Winston-SalemLocation

Past Weather in Winston-Salem — Graph

°F

Winston-Salem Temperature Yesterday

Maximum temperature yesterday: 52 °F (at 3:54 pm)
Minimum temperature yesterday: 48 °F (at 5:54 am)
Average temperature yesterday: 50 °F

High & Low Weather Summary for the Past Weeks

 TemperatureHumidityPressure
High83 °F (Apr 21, 1:54 pm)94% (Apr 22, 5:02 am)30.39 "Hg (Apr 22, 5:02 am)
Low48 °F (Apr 23, 5:54 am)28% (Apr 12, 5:54 pm)29.64 "Hg (Apr 25, 4:54 am)
Average64 °F68%30.12 "Hg
* Reported Apr 10 7:54 am — Apr 25 7:17 am, Winston-Salem, Weather by CustomWeather, © 2017

Note: Actual official high and low records may vary slightly from our data, if they occured in-between our weather recording intervals... More about our weather records

Advertising

Winston-Salem Weather History for the Previous 24 Hours

Scroll right to see more
 ConditionsComfort  
Time TempWeatherWind HumidityBarometerVisibility
7:17 am
Tue, Apr 25
54 °FLow clouds.9 mph90%29.70 "Hg7 mi
6:54 am53 °FLight rain. Fog.13 mph93%29.68 "Hg3 mi
6:19 am53 °FFog.13 mph93%29.68 "Hg6 mi
5:54 am53 °FFog.10 mph93%29.66 "Hg4 mi
4:54 am53 °FLow clouds.16 mph89%29.64 "Hg10 mi
3:54 am53 °FLow clouds.14 mph89%29.67 "Hg10 mi
2:54 am52 °FLight rain. Low clouds.15 mph89%29.67 "Hg10 mi
2:31 am52 °FLight rain. Low clouds.15 mph89%29.69 "Hg10 mi
1:54 am52 °FLight rain. Overcast.14 mph89%29.70 "Hg10 mi
1:33 am52 °FLight rain. Fog.16 mph89%29.71 "Hg5 mi
1:07 am52 °FRain. Fog.20 mph89%29.71 "Hg4 mi
12:32 am52 °FRain. Fog.12 mph93%29.73 "Hg3 mi
12:19 am52 °FHeavy rain. Fog.13 mph93%29.75 "Hg2 mi
11:54 pm
Mon, Apr 24
52 °FRain. Fog.13 mph93%29.75 "Hg6 mi
10:56 pm52 °FRain. Fog.8 mph89%29.77 "Hg3 mi
9:54 pm52 °FLight rain. Mostly cloudy.13 mph89%29.76 "Hg8 mi
9:07 pm52 °FLight rain. Overcast.15 mph89%29.78 "Hg7 mi
7:54 pm52 °FLight rain. Fog.15 mph93%29.78 "Hg5 mi
7:01 pm52 °FLight rain. Fog.14 mph93%29.80 "Hg4 mi
6:38 pm52 °FRain. Fog.14 mph89%29.80 "Hg2 mi
6:00 pm52 °FHeavy rain. Fog.16 mph89%29.81 "Hg2 mi
5:31 pm52 °FRain. Fog.15 mph89%29.81 "Hg2 mi
4:54 pm52 °FLight rain. Fog.15 mph89%29.80 "Hg4 mi
3:54 pm52 °FLight rain. Low clouds.16 mph89%29.80 "Hg9 mi
2:54 pm51 °FLight rain. Low clouds.16 mph89%29.82 "Hg10 mi
1:54 pm51 °FLight rain. Mostly cloudy.14 mph89%29.86 "Hg10 mi
12:54 pm51 °FLight rain. Fog.10 mph89%29.90 "Hg4 mi
11:54 am50 °FLight rain. Fog.12 mph89%29.91 "Hg4 mi
10:54 am50 °FLow clouds.17 mph89%29.89 "Hg10 mi
9:54 am50 °FLow clouds.16 mph86%29.88 "Hg10 mi
8:54 am49 °FMostly cloudy.18 mph90%29.88 "Hg10 mi
Weather by CustomWeather, © 2017

See weather overviewHow to use our weather pages